This is the latest recevied weather packets stored in our database for station/object W4MLN-3. If no packets are shown the sender has not sent any weather packets the latest 10 day(s).
| Time | Temp. | Humidity | Pressure | Rain* | Wind** | Luminosity | Snow |
|---|---|---|---|---|---|---|---|
| 1787952603 | 25° C | 68% | 1020.1 hPa | 0 mm | - | - | - |
| 1787952303 | 25.56° C | 68% | 1020.3 hPa | 0 mm | - | - | - |
| 1787952003 | 25.56° C | 66% | 1020.3 hPa | 0 mm | - | - | - |
| 1787951724 | 26.11° C | 65% | 1020.3 hPa | 0 mm | - | - | - |
| 1787951403 | 26.67° C | 63% | 1020.2 hPa | 0 mm | - | - | - |
| 1787951103 | 26.67° C | 62% | 1020.3 hPa | 0 mm | - | - | - |
| 1787950803 | 27.22° C | 61% | 1020.3 hPa | 0 mm | - | - | - |
| 1787950510 | 27.22° C | 62% | 1020.3 hPa | 0 mm | - | - | - |
| 1787950203 | 27.78° C | 60% | 1020.2 hPa | 0 mm | - | - | - |
| 1787949924 | 27.78° C | 59% | 1020.2 hPa | 0 mm | - | - | - |
| 1787949645 | 27.78° C | 61% | 1020.1 hPa | 0 mm | - | - | - |
| 1787949303 | 27.78° C | 61% | 1020.1 hPa | 0 mm | - | - | - |
| 1787949003 | 27.22° C | 61% | 1019.9 hPa | 0 mm | - | - | - |
| 1787948703 | 27.22° C | 64% | 1020 hPa | 0 mm | - | - | - |
| 1787948403 | 26.67° C | 65% | 1020 hPa | 0 mm | - | - | - |
| 1787948103 | 26.67° C | 65% | 1020.1 hPa | 0 mm | - | - | - |
| 1787947803 | 26.67° C | 63% | 1020.2 hPa | 0 mm | - | - | - |
| 1787947503 | 26.67° C | 65% | 1020.4 hPa | 0 mm | - | - | - |
| 1787947213 | 26.67° C | 64% | 1020.4 hPa | 0 mm | - | - | - |
| 1787946903 | 26.67° C | 64% | 1020.4 hPa | 0 mm | - | - | - |
| 1787946603 | 27.22° C | 64% | 1020.4 hPa | 0 mm | - | - | - |
| 1787946325 | 27.22° C | 63% | 1020.5 hPa | 0 mm | - | - | - |
| 1787946003 | 27.78° C | 62% | 1020.4 hPa | 0 mm | - | - | - |
| 1787945703 | 27.78° C | 64% | 1020.4 hPa | 0 mm | - | - | - |
| 1787945403 | 27.22° C | 64% | 1020.4 hPa | 0 mm | - | - | - |
* Rain latest hour (hover to see other rain measurements)
** Current wind speed in m/s (hover to see current wind gust speed)